Location: ????????
(41.2031°N, 22.5756°E)
Time: 08:27:17
(UTC+00:00)

Cosmos 44 Rocket - Pass Details

Date: 01 December 2020
Orbit: 639 x 751 km, 65.1° (Epoch: 17 January)

Event Time Altitude Azimuth Distance (km) Brightness Sun altitude
Rises 17:38:34 0° 325° (NW) 3,179 7.1 -28.9°
Reaches altitude 10° 17:40:57 10° 323° (NW) 2,263 6.3 -29.4°
Enters shadow 17:45:09 55° 294° (WNW) 901 4.0 -30.2°
